Flag for Spain Weather past 2 weeks in Las Palmas, Canary Islands, Spain

Now
79 °F

Passing clouds.


Feels Like: 80 °F
Forecast: 71 / 78 °F
Wind: 25 mph from Northeast

Location: Las Palmas De Gran Canaria / Gando

Current Time: Jul 28, 2014 at 11:58:11 AM

Latest Report: Jul 28, 2014 at 11:30 AM


Visibility: N/A

Pressure: 30.12 "Hg

Humidity: 54%

Dew point: 61 °F

Location of Las PalmasLocation

Historic Weather in Las Palmas — Graph

°F

Las Palmas temperature yesterday

Maximum temperature yesterday: 79 °F (at 12:30 PM)
Minimum temperature yesterday: 70 °F (at 5:00 AM)
Average temperature yesterday: 75 °F

Past Weeks' High & Low Weather Summary

 TemperatureHumidityPressure
High82 °F (Jul 22, 3:00 PM)83% (Jul 23, 4:30 AM)30.15 "Hg (Jul 23, 4:30 AM)
Low70 °F (Jul 14, 4:30 AM)45% (Jul 26, 2:30 PM)29.98 "Hg (Jul 15, 3:00 PM)
Average75 °F65%30.06 "Hg
* Reported Jul 13 10:00 AM — Jul 28 10:30 AM, Las Palmas, Weather by CustomWeather, © 2014

Note: Actual official high and low records may vary slightly from our data, if they occured in-between our weather recording intervals... More about our weather records

Advertising

Las Palmas weather history for previous 24 hours

 ConditionsComfort  
Time TempWeatherWind HumidityBarometerVisibility
10:30 AM
Jul 28
77 °FScattered clouds.23 mph51%30.12 "HgN/A
10:00 AM77 °FScattered clouds.23 mph54%30.09 "HgN/A
9:30 AM75 °FScattered clouds.22 mph61%30.09 "HgN/A
9:00 AM73 °FScattered clouds.21 mph65%30.09 "HgN/A
8:30 AM72 °FScattered clouds.14 mph73%30.09 "HgN/A
8:00 AM72 °FPassing clouds.15 mph69%30.09 "HgN/A
7:30 AM72 °FPassing clouds.12 mph69%30.09 "HgN/A
7:00 AM72 °FPassing clouds.13 mph69%30.12 "HgN/A
6:30 AM72 °FPassing clouds.16 mph65%30.12 "HgN/A
6:00 AM72 °FPassing clouds.15 mph69%30.09 "HgN/A
5:30 AM72 °FPassing clouds.15 mph69%30.09 "HgN/A
5:00 AM72 °FPassing clouds.17 mph69%30.09 "HgN/A
4:30 AM72 °FPassing clouds.14 mph73%30.09 "HgN/A
4:00 AM72 °FPassing clouds.17 mph73%30.09 "HgN/A
3:30 AM72 °FPassing clouds.20 mph73%30.09 "HgN/A
3:00 AM72 °FPassing clouds.14 mph69%30.12 "HgN/A
2:30 AM72 °FPassing clouds.20 mph73%30.12 "HgN/A
2:00 AM73 °FPassing clouds.20 mph69%30.12 "HgN/A
1:30 AM73 °FPassing clouds.16 mph65%30.12 "HgN/A
1:00 AM72 °FPassing clouds.15 mph69%30.12 "HgN/A
12:30 AM72 °FPassing clouds.17 mph69%30.12 "HgN/A
12:00 AM73 °FPassing clouds.17 mph65%30.12 "HgN/A
11:30 PM
Jul 27
73 °FPassing clouds.18 mph69%30.12 "HgN/A
11:00 PM73 °FPassing clouds.16 mph65%30.12 "HgN/A
10:30 PM73 °FPassing clouds.20 mph65%30.12 "HgN/A
10:00 PM73 °FPassing clouds.20 mph65%30.12 "HgN/A
9:30 PM73 °FPassing clouds.20 mph65%30.12 "HgN/A
9:00 PM75 °FPassing clouds.21 mph57%30.09 "HgN/A
8:30 PM75 °FPassing clouds.21 mph57%30.09 "HgN/A
8:00 PM77 °FPassing clouds.23 mph54%30.09 "HgN/A
7:30 PM77 °FPassing clouds.24 mph57%30.09 "HgN/A
7:00 PM77 °FPassing clouds.25 mph61%30.09 "HgN/A
6:30 PM79 °FPassing clouds.26 mph58%30.09 "HgN/A
6:00 PM79 °FPassing clouds.26 mph61%30.09 "HgN/A
5:30 PM79 °FPassing clouds.25 mph58%30.09 "HgN/A
5:00 PM79 °FPassing clouds.25 mph58%30.09 "HgN/A
4:30 PM79 °FPassing clouds.25 mph61%30.09 "HgN/A
4:00 PM79 °FPassing clouds.25 mph61%30.09 "HgN/A
3:30 PM79 °FPassing clouds.24 mph61%30.09 "HgN/A
3:00 PM79 °FPassing clouds.25 mph61%30.12 "HgN/A
2:30 PM79 °FPassing clouds.25 mph61%30.12 "HgN/A
2:00 PM79 °FPassing clouds.25 mph61%30.12 "HgN/A
1:30 PM79 °FPassing clouds.25 mph61%30.12 "HgN/A
1:00 PM79 °FPassing clouds.24 mph58%30.12 "HgN/A
12:30 PM79 °FPassing clouds.22 mph58%30.12 "HgN/A
12:00 PM77 °FScattered clouds.20 mph65%30.12 "HgN/A
11:30 AM77 °FScattered clouds.21 mph57%30.12 "HgN/A
11:00 AM77 °FPartly sunny.18 mph65%30.12 "HgN/A
Weather by CustomWeather, © 2014

See weather overviewHow to use our weather pages